Location: Congrier
(47.8099°N, 1.1170°W)
Time: 00:30:06
(UTC+00:00)

BREEZE M DEB (TANK) - Pass Details

Date: 28 January 2023
Orbit: 341 x 13534 km, 49.6° (Epoch: 19 March)

Event Time Altitude Azimuth Distance (km) Brightness Sun altitude
Rises 18:47:46 0° 292° (WNW) 4,677 8.6 -18.3°
Reaches altitude 10° 18:52:09 10° 287° (WNW) 2,595 7.2 -19.1°
Maximum altitude 18:56:46 41° 216° (SW) 701 3.6 -19.8°
Enters shadow 18:57:39 31° 171° (S) 774 3.5 -20.0°
